York, PA

4:45 AM EDT on October 17, 2017 (GMT -0400)
York

Weather History for KTHV - December, 2011

Change the Weather History Date:

Thursday, December 29, 2011

  Actual Average Record
Temperature  
Mean Temperature 26 °F -  
Max Temperature 33 °F 0 °F 53 °F (2003)
Min Temperature 18 °F - 12 °F (2000)
Degree Days  
Heating Degree Days 40    
Moisture  
Dew Point 25 °F    
Average Humidity 82    
Maximum Humidity 93    
Minimum Humidity 61    
Precipitation  
Precipitation 0.01 in - - ()
Sea Level Pressure  
Sea Level Pressure 30.00 in    
Wind  
Wind Speed 2 mph (SE)    
Max Wind Speed 7 mph    
Max Gust Speed -    
Visibility 6 miles    
Events Snow    
Averages and records for this station are not official NWS values.
T = Trace of Precipitation, MM = Missing Value Source: NWS Daily Summary

Daily Weather History Graph

Daily Weather History Graph

Search for Another Location

Airport or City:

Trip Planner

Search our weather history database for the weather conditions in past years. The results will help you decide how hot, cold, wet, or windy it might be!

Date:

Astronomy

Dec. 29, 2011 Rise Set
Actual Time 7:28 AM EST 4:50 PM EST
Civil Twilight 6:58 AM EST 5:20 PM EST
Nautical Twilight 6:24 AM EST 5:54 PM EST
Astronomical Twilight 5:51 AM EST 6:27 PM EST
Moon 10:21 AM EST (12/29) 10:24 PM EST (12/29)
Length of Visible Light 10h 22m
Length of Day
9h 22m
Waxing Crescent, 26% of the Moon is Illuminated
Dec 29
Waxing Crescent
Jan 1
First Quarter
Jan 9
Full
Jan 16
Last Quarter
Jan 23
New

Hourly Weather History & Observations

Time (EST) Temp. Windchill Dew Point Humidity Pressure Visibility Wind Dir Wind Speed Gust Speed Precip Events Conditions
12:53 AM 24.1 °F - 14.0 °F 65% 30.01 in 10.0 mi Calm Calm - N/A   Clear
2:53 AM 24.1 °F - 14.0 °F 65% 30.02 in 10.0 mi Calm Calm - N/A   Clear
3:53 AM 24.1 °F 19.7 °F 15.1 °F 69% 30.02 in 10.0 mi WNW 3.5 mph - N/A   Clear
4:53 AM 21.9 °F - 14.0 °F 72% 30.04 in 10.0 mi Calm Calm - N/A   Clear
5:53 AM 19.9 °F - 15.1 °F 81% 30.05 in 10.0 mi Calm Calm - N/A   Clear
6:53 AM 18.0 °F - 14.0 °F 84% 30.05 in 10.0 mi Calm Calm - N/A   Clear
7:53 AM 19.9 °F - 16.0 °F 85% 30.07 in 10.0 mi Calm Calm - N/A   Clear
8:53 AM 25.0 °F - 19.0 °F 78% 30.07 in 10.0 mi Calm Calm - N/A   Clear
10:53 AM 30.9 °F 27.5 °F 19.0 °F 61% 30.07 in 10.0 mi SE 3.5 mph - N/A   Scattered Clouds
11:53 AM 32.0 °F 28.7 °F 19.9 °F 61% 30.04 in 10.0 mi Variable 3.5 mph - N/A   Overcast
12:53 PM 33.1 °F 30.0 °F 23.0 °F 66% 30.03 in 7.0 mi Variable 3.5 mph - 0.00 in Snow Light Snow
1:49 PM 33.8 °F 29.6 °F 26.6 °F 75% 29.98 in 3.0 mi SSW 4.6 mph - 0.00 in Snow Light Snow
1:53 PM 33.1 °F 26.9 °F 27.0 °F 78% 30.01 in 3.0 mi SSW 6.9 mph - 0.00 in Snow Light Snow
2:12 PM 33.8 °F 29.6 °F 28.4 °F 81% 29.98 in 2.0 mi Variable 4.6 mph - 0.00 in Snow Light Snow
2:21 PM 33.8 °F - 28.4 °F 81% 29.98 in 1.5 mi Calm Calm - 0.00 in Snow Light Snow
2:34 PM 32.0 °F 28.7 °F 28.4 °F 87% 29.97 in 1.0 mi Variable 3.5 mph - 0.00 in Snow Light Snow
2:53 PM 32.0 °F 27.5 °F 28.9 °F 88% 29.99 in 1.2 mi SSE 4.6 mph - 0.01 in Snow Light Snow
3:03 PM 32.0 °F 27.5 °F 30.2 °F 93% 29.96 in 1.0 mi SE 4.6 mph - 0.00 in Snow Light Snow
3:14 PM 32.0 °F 27.5 °F 30.2 °F 93% 29.96 in 1.2 mi SE 4.6 mph - 0.00 in Snow Light Snow
3:23 PM 32.0 °F 27.5 °F 30.2 °F 93% 29.96 in 2.0 mi ESE 4.6 mph - 0.00 in Snow Light Snow
3:34 PM 32.0 °F 27.5 °F 30.2 °F 93% 29.95 in 2.5 mi East 4.6 mph - 0.00 in Snow Light Snow
3:36 PM 32.0 °F 28.7 °F 30.2 °F 93% 29.95 in 3.0 mi ESE 3.5 mph - 0.00 in Snow Light Snow
4:53 PM 33.1 °F - 28.9 °F 85% 30.00 in 10.0 mi Calm Calm - N/A   Overcast
5:15 PM 33.8 °F - 28.4 °F 81% 29.97 in 10.0 mi Calm Calm - N/A   Overcast
5:53 PM 33.1 °F 30.0 °F 30.0 °F 89% 29.99 in 10.0 mi ESE 3.5 mph - N/A   Overcast
6:53 PM 33.1 °F - 30.0 °F 89% 30.00 in 9.0 mi Calm Calm - N/A   Overcast
7:53 PM 33.1 °F - 30.0 °F 89% 30.00 in 8.0 mi Calm Calm - N/A   Overcast
8:53 PM 30.9 °F - 28.9 °F 92% 29.99 in 7.0 mi Calm Calm - N/A   Overcast
9:53 PM 30.0 °F - 28.0 °F 92% 29.98 in 6.0 mi Calm Calm - N/A   Overcast
10:53 PM 30.9 °F - 28.9 °F 92% 29.98 in 5.0 mi Calm Calm - N/A   Overcast
11:53 PM 32.0 °F - 30.0 °F 92% 29.99 in 4.0 mi Calm Calm - 0.00 in Snow Light Snow